Location: Bad Rothenbrunn
(47.2167°N, 11.2167°E)
Time: 19:53:49
(UTC+00:00)

Meteor 1-23 Rocket - Pass Details

Date: 03 March 2021
Orbit: 838 x 887 km, 81.3° (Epoch: 22 April)

Event Time Altitude Azimuth Distance (km) Brightness Sun altitude
Rises 19:21:30 0° 349° (N) 3,407 7.7 -24.0°
Reaches altitude 10° 19:23:55 10° 351° (N) 2,471 6.9 -24.4°
Maximum altitude 19:29:31 76° 78° (ENE) 876 4.0 -25.3°
Enters shadow 19:30:09 68° 132° (SE) 915 4.1 -25.4°
